This is the latest recevied weather packets stored in our database for station/object KC1OEK-13. If no packets are shown the sender has not sent any weather packets the latest 10 day(s).
| Time | Temp. | Humidity | Pressure | Rain* | Wind** | Luminosity | Snow |
|---|---|---|---|---|---|---|---|
| 1777635511 | 5° C | 90% | 1013.8 hPa | 0 mm | - | 39 W/m² | - |
| 1777635207 | 3.89° C | 95% | 1013.6 hPa | 0 mm | - | 34 W/m² | - |
| 1777634904 | 3.89° C | 97% | 1013.6 hPa | 0 mm | - | 36 W/m² | - |
| 1777634601 | 3.33° C | 97% | 1013.6 hPa | 0 mm | - | 36 W/m² | - |
| 1777634298 | 3.33° C | 97% | 1013.6 hPa | 0 mm | - | 33 W/m² | - |
| 1777633994 | 2.78° C | 97% | 1013.5 hPa | 0 mm | - | 31 W/m² | - |
| 1777633691 | 2.78° C | 97% | 1013.7 hPa | 0 mm | - | 30 W/m² | - |
| 1777633390 | 2.78° C | 97% | 1013.5 hPa | 0 mm | - | 32 W/m² | - |
| 1777633087 | 2.78° C | 97% | 1013.3 hPa | 0 mm | - | 36 W/m² | - |
| 1777632783 | 2.78° C | 97% | 1013.3 hPa | 0 mm | - | 34 W/m² | - |
| 1777632479 | 2.78° C | 97% | 1013.3 hPa | 0 mm | - | 33 W/m² | - |
| 1777632176 | 2.22° C | 97% | 1013.1 hPa | 0 mm | - | 33 W/m² | - |
| 1777631873 | 2.22° C | 97% | 1013.2 hPa | 0 mm | - | 29 W/m² | - |
| 1777631572 | 2.22° C | 96% | 1013.1 hPa | 0 mm | - | 24 W/m² | - |
| 1777631269 | 1.67° C | 96% | 1013 hPa | 0 mm | - | 20 W/m² | - |
| 1777630966 | 1.67° C | 96% | 1013 hPa | 0 mm | - | 17 W/m² | - |
| 1777630661 | 1.67° C | 96% | 1013 hPa | 0 mm | - | 14 W/m² | - |
| 1777630359 | 1.67° C | 96% | 1013 hPa | 0 mm | - | 12 W/m² | - |
| 1777630056 | 1.67° C | 95% | 1012.9 hPa | 0 mm | - | 10 W/m² | - |
| 1777629753 | 1.67° C | 95% | 1012.8 hPa | 0 mm | - | 8 W/m² | - |
| 1777629450 | 2.22° C | 94% | 1012.8 hPa | 0 mm | - | 5 W/m² | - |
| 1777629146 | 2.22° C | 94% | 1012.7 hPa | 0 mm | - | 3 W/m² | - |
| 1777628842 | 2.78° C | 93% | 1012.7 hPa | 0 mm | - | 2 W/m² | - |
| 1777628235 | 2.78° C | 92% | 1012.6 hPa | 0 mm | - | 0 W/m² | - |
| 1777627931 | 2.78° C | 92% | 1012.5 hPa | 0 mm | - | 0 W/m² | - |
* Rain latest hour (hover to see other rain measurements)
** Current wind speed in m/s (hover to see current wind gust speed)